Temperature
7 7 7 7 7 7 7 7 7 7 7 7 7 7 7 7 7 7 6 6 6 6 6 5 5 5 5 4 4 4 3 3 2 3 3 3 2 2 2 2 2 2 2
6 6 7 7 7 7 7 7 7 7 7 7 7 7 7 7 6 6 6 6 6 5 5 5 5 4 4 4 4 3 3 3 2 2 2 2 2 2 2 2 2 2 2
6 6 6 6 6 6 7 7 7 6 6 6 6 6 6 6 6 6 6 5 5 5 5 5 4 4 4 4 3 3 3 2 2 1 1 1 1 1 1 1 1 1 1
5 5 6 6 6 6 6 6 6 6 6 6 6 6 6 6 6 5 5 5 5 5 4 4 4 4 3 3 3 2 2 2 1 1 1 1 1 1 0 0 1 1 1
5 5 5 5 5 5 6 6 6 6 6 6 6 5 5 5 5 5 5 5 5 4 4 4 4 3 3 2 2 2 2 1 1 1 0 0 0 0 -0 -0 -0 0 0
4 5 5 5 5 5 5 5 5 5 5 5 5 5 5 5 5 4 4 4 4 4 4 4 3 3 2 2 2 2 1 1 0 0 -0 -0 -0 -0 -0 -1 -1 -1 -0
4 4 4 4 4 5 5 5 5 5 5 4 4 4 4 4 4 4 4 4 4 3 3 3 3 2 2 2 2 1 1 1 0 -0 -0 -1 -1 -1 -1 -1 -1 -1 -1
3 3 4 4 4 4 4 4 4 4 4 4 4 4 4 4 4 4 3 3 3 3 3 2 2 2 2 1 1 1 1 1 0 -0 -1 -1 -1 -1 -1 -1 -1 -1 -1
3 3 3 4 4 4 4 4 4 4 4 3 3 3 3 3 3 3 3 3 3 2 2 2 2 1 1 1 1 1 1 1 0 -0 -1 -1 -1 -1 -1 -1 -1 -1 -1
3 3 3 3 3 3 3 3 3 3 3 3 3 3 3 3 3 2 2 2 2 2 2 2 1 1 1 1 0 0 0 0 0 -0 -0 -1 -1 -1 -1 -1 -2 -2 -2
2 2 2 2 3 3 3 3 3 3 3 3 2 2 2 2 2 2 2 1 1 1 1 1 1 1 1 0 0 0 -0 -0 -0 -1 -1 -1 -1 -1 -1 -1 -2 -2 -2
2 2 2 2 2 2 2 2 2 2 2 2 2 2 2 2 1 1 1 1 1 1 1 1 1 0 0 0 0 -0 -0 -0 -0 -1 -1 -1 -1 -1 -1 -1 -2 -2 -2
1 1 1 1 1 1 2 2 1 1 1 1 1 1 1 1 1 1 1 0 0 0 0 0 0 0 0 0 -0 -0 -1 -1 -1 -1 -1 -1 -1 -1 -2 -2 -2 -2 -2
1 1 1 1 1 1 1 1 1 1 1 1 1 1 1 0 0 0 0 -0 -0 -0 -0 -0 -0 -0 -0 -0 -1 -1 -1 -1 -1 -1 -1 -2 -2 -2 -2 -2 -2 -2 -2
0 0 0 0 0 0 0 0 0 -0 -0 -0 0 0 0 0 0 -0 -0 -0 -0 -0 -1 -0 -0 -0 -1 -1 -1 -1 -1 -1 -1 -2 -2 -2 -2 -2 -2 -2 -3 -3 -3
-0 -0 -0 -0 -0 -0 -0 -1 -1 -1 -1 -1 -1 -1 -0 -0 -0 -1 -1 -1 -1 -1 -1 -1 -1 -1 -1 -2 -2 -2 -2 -2 -2 -2 -2 -2 -2 -2 -2 -3 -3 -3 -3
-1 -1 -1 -1 -1 -1 -1 -1 -1 -1 -1 -1 -1 -1 -1 -1 -1 -1 -1 -1 -1 -1 -1 -1 -1 -2 -2 -2 -2 -2 -2 -2 -2 -2 -2 -2 -2 -3 -3 -3 -3 -3 -3
-1 -1 -1 -1 -1 -2 -2 -2 -2 -2 -2 -2 -1 -1 -1 -1 -1 -1 -1 -1 -1 -1 -2 -2 -2 -2 -2 -2 -2 -2 -2 -2 -2 -2 -2 -3 -3 -3 -3 -3 -3 -3 -3
-2 -2 -2 -2 -2 -2 -2 -2 -2 -2 -2 -2 -2 -2 -2 -2 -2 -2 -2 -2 -2 -2 -2 -2 -3 -3 -3 -3 -3 -3 -3 -3 -3 -3 -3 -3 -3 -3 -3 -3 -4 -4 -4
-2 -2 -2 -3 -3 -3 -3 -3 -3 -3 -3 -3 -3 -2 -2 -2 -2 -2 -2 -2 -2 -2 -3 -3 -3 -3 -3 -3 -3 -3 -3 -3 -3 -3 -3 -3 -3 -3 -3 -3 -4 -4 -4
-3 -3 -3 -3 -3 -3 -3 -3 -3 -3 -3 -3 -3 -3 -3 -3 -3 -3 -3 -3 -3 -3 -3 -3 -3 -3 -3 -3 -3 -3 -3 -3 -3 -3 -3 -3 -3 -3 -3 -4 -4 -4 -4
-4 -4 -4 -4 -4 -4 -4 -4 -4 -4 -4 -4 -3 -3 -3 -3 -3 -3 -3 -3 -3 -3 -3 -3 -3 -3 -3 -3 -3 -3 -3 -3 -4 -4 -4 -4 -4 -4 -4 -4 -4 -4 -4
-4 -4 -4 -4 -4 -4 -4 -4 -4 -4 -4 -4 -4 -4 -4 -4 -3 -3 -4 -4 -4 -4 -4 -4 -4 -4 -4 -4 -4 -4 -4 -4 -4 -4 -4 -4 -4 -4 -4 -4 -4 -4 -4
-5 -5 -5 -5 -5 -5 -5 -5 -4 -4 -4 -4 -4 -4 -4 -4 -4 -4 -4 -4 -4 -4 -4 -4 -4 -4 -4 -4 -4 -4 -4 -4 -4 -4 -4 -4 -4 -4 -4 -4 -4 -4 -4
-6 -6 -6 -6 -5 -5 -5 -5 -5 -5 -5 -5 -5 -4 -4 -4 -4 -4 -4 -4 -4 -4 -4 -4 -4 -4 -4 -4 -4 -4 -4 -4 -4 -4 -4 -4 -4 -4 -4 -4 -4 -4 -4
-6 -6 -6 -6 -6 -6 -5 -5 -5 -5 -5 -5 -5 -5 -5 -5 -5 -5 -5 -4 -4 -4 -4 -4 -4 -4 -4 -4 -4 -4 -4 -4 -4 -4 -4 -4 -4 -4 -4 -4 -4 -4 -4
Wind_Speed
4 3 3 3 3 4 4 5 5 5 5 5 4 4 3 3 3 2 1 1 1 1 1 1 2 2 2 2 2 2 3 4 8 8 6 6 8 9 11 12 13 12 13
3 3 3 3 3 3 4 4 5 5 5 5 4 4 3 3 3 3 2 2 2 2 2 2 2 2 2 2 2 3 3 4 6 10 8 7 8 9 9 9 10 12 11
3 4 4 3 3 3 3 4 5 5 5 4 4 4 3 3 3 2 2 2 1 1 1 2 2 2 3 3 3 3 4 5 4 7 9 8 7 7 9 9 9 8 11
3 4 3 3 3 3 3 4 4 5 5 4 4 3 3 3 3 2 2 1 1 1 1 2 2 2 3 3 4 4 4 5 5 6 7 8 7 7 7 8 9 8 9
3 3 3 2 3 3 3 3 4 4 4 4 4 3 3 3 3 2 2 1 1 1 2 2 2 3 4 4 4 4 4 4 5 6 7 8 8 8 8 7 9 9 8
2 3 3 3 2 3 3 3 4 4 4 4 4 4 3 2 2 2 1 1 1 1 2 2 3 3 4 5 7 7 6 5 6 6 6 8 9 8 8 8 8 9 8
2 2 2 3 2 2 3 3 4 4 4 4 3 3 3 2 3 2 1 0 1 2 2 2 3 3 4 3 6 7 7 9 8 7 8 8 9 8 8 9 9 9 9
2 2 2 2 2 2 2 3 3 3 3 3 3 3 3 2 2 2 1 0 1 1 2 2 2 3 3 4 4 5 5 6 7 5 5 7 7 7 7 8 9 9 8
2 1 1 2 2 2 2 3 3 3 3 3 3 3 2 2 2 1 1 1 0 1 2 2 2 3 5 6 4 5 6 5 7 8 9 9 11 12 10 6 7 7 8
1 1 1 1 2 2 2 2 2 2 3 3 2 2 2 2 2 1 0 1 1 1 2 2 3 4 5 6 4 4 6 6 6 7 7 8 7 8 10 6 5 6 7
2 2 2 1 1 2 2 1 2 2 2 2 2 2 2 2 2 2 1 0 1 1 2 2 2 5 6 6 6 4 6 7 5 5 5 5 5 5 6 5 5 4 5
2 2 2 2 1 2 2 2 2 2 3 2 2 1 1 1 1 1 1 2 2 1 2 2 2 4 5 7 6 6 8 7 4 4 4 5 5 6 6 6 6 5 5
2 2 2 2 2 2 2 2 2 2 2 2 2 1 1 1 1 1 2 3 3 2 1 3 4 4 5 5 6 7 6 4 3 4 4 5 5 6 6 6 6 6 6
2 2 1 2 2 2 2 1 1 1 1 2 2 1 1 1 1 1 1 1 3 2 2 2 4 4 4 5 5 4 4 3 3 3 4 4 5 5 5 5 6 6 5
2 1 1 2 2 2 2 1 1 1 1 1 1 2 2 1 1 1 1 1 1 1 2 2 2 2 3 3 3 3 3 4 4 4 4 5 5 5 6 6 5 5 4
2 2 1 2 2 2 2 2 3 2 3 2 2 1 0 0 1 1 2 2 2 2 2 1 2 2 2 3 3 4 4 4 4 4 4 4 5 6 6 6 5 5 5
2 1 1 1 2 1 2 2 2 3 3 3 3 2 2 2 2 2 2 2 2 3 2 1 1 2 2 2 3 3 3 4 4 4 4 4 5 5 5 6 6 5 5
2 1 1 1 1 1 1 1 2 2 1 2 2 3 3 3 3 3 3 4 2 2 2 1 2 2 2 2 3 3 3 4 4 4 4 4 5 5 5 5 5 6 6
1 1 1 1 1 1 1 1 1 2 1 1 2 2 3 3 4 4 4 2 1 1 2 2 2 2 2 2 3 3 3 3 4 4 4 5 5 5 5 5 5 7 6
1 2 1 1 2 2 2 2 1 1 1 1 1 1 2 2 2 2 2 2 1 1 2 2 2 2 2 2 3 3 3 3 4 4 4 4 4 4 5 6 5 5 5
1 1 2 2 1 1 1 1 1 1 1 1 0 1 1 1 1 1 1 2 2 2 2 2 2 2 2 2 2 3 3 3 3 4 4 4 4 4 4 5 5 5 4
1 1 1 1 1 1 1 1 1 1 1 1 1 1 2 2 1 1 1 2 2 2 2 2 2 2 2 2 3 3 3 3 4 4 4 4 4 4 4 4 4 4 4
1 1 1 1 1 1 1 1 1 1 1 1 1 1 1 1 1 1 2 2 2 2 3 2 2 2 3 3 3 3 3 4 4 4 4 4 4 4 4 4 5 5 4
1 1 1 1 1 1 1 1 1 1 1 1 1 1 1 1 2 2 2 2 2 3 3 3 3 3 5 5 5 5 5 5 5 4 4 4 4 4 4 4 4 5 4
1 1 1 1 1 1 1 1 1 1 1 1 1 1 1 2 2 2 2 2 3 3 4 4 4 4 5 6 6 6 7 7 7 6 4 3 3 4 4 4 4 4 4
1 1 1 1 1 1 1 1 1 1 1 1 1 1 1 1 2 2 2 2 2 3 4 4 5 6 6 6 6 7 8 8 8 7 4 2 3 3 3 3 4 4 4
Wind_Direction
145 150 139 139 141 146 152 155 153 148 150 158 162 159 159 164 161 157 174 170 166 231 248 245 266 274 274 278 277 277 278 276 283 294 300 312 317 318 320 321 320 320 320
144 144 137 136 141 157 157 153 147 145 149 154 153 155 160 161 160 166 184 182 192 225 249 261 275 285 281 280 279 279 280 280 282 296 306 314 313 313 314 317 324 322 320
129 138 137 143 147 161 159 149 145 145 144 146 149 159 165 164 163 170 176 183 205 232 252 266 279 286 289 293 292 290 290 296 293 296 302 306 309 314 317 317 319 319 323
127 128 135 148 154 151 149 141 144 146 145 148 151 157 159 158 157 157 162 177 217 259 264 265 276 280 286 296 297 295 300 304 303 300 300 307 310 312 318 322 323 324 324
122 124 132 134 137 136 141 143 143 142 146 147 148 152 156 161 163 155 165 183 212 270 284 279 279 287 301 304 304 307 308 304 305 303 303 310 314 320 322 320 320 320 317
115 122 123 123 123 135 145 144 138 137 143 147 154 157 161 169 160 154 169 182 214 259 280 290 291 287 300 312 314 312 307 298 300 299 299 303 306 311 317 320 320 321 317
108 107 112 124 128 137 147 151 150 150 144 149 157 156 163 171 164 166 182 196 225 249 267 288 303 305 312 307 309 311 305 298 291 288 292 296 301 308 313 314 315 314 304
111 110 109 119 130 130 139 153 153 144 147 154 160 162 165 176 176 174 172 171 234 258 265 272 284 295 302 308 311 310 301 300 297 295 287 293 302 308 306 305 304 306 299
115 121 125 125 133 136 146 150 148 143 148 153 156 160 165 185 185 167 109 145 233 283 290 300 296 293 304 319 320 313 313 313 316 312 312 314 320 324 326 323 322 323 317
107 112 109 121 134 137 150 141 126 134 144 147 153 160 164 178 181 168 113 159 244 290 305 310 309 317 319 326 319 311 312 315 325 329 327 327 328 331 336 332 320 318 317
71 76 83 92 112 120 112 118 125 125 134 146 155 160 165 170 177 189 224 204 217 271 293 308 319 327 325 326 323 309 309 319 326 329 329 331 334 335 335 332 323 310 307
82 87 92 92 90 103 109 111 125 136 141 143 134 121 112 127 145 224 283 328 345 302 293 307 321 330 334 332 331 331 334 337 334 335 335 335 335 335 332 332 327 316 294
88 83 90 84 86 104 120 122 121 128 138 146 141 137 105 78 50 357 343 349 356 357 341 338 342 347 344 341 342 346 349 350 345 342 336 331 328 324 326 328 325 323 320
95 91 96 105 100 102 103 114 124 134 145 143 141 138 110 68 41 33 14 6 7 7 357 3 8 4 351 343 348 354 358 352 346 337 329 325 328 333 332 330 329 332 334
91 90 92 100 102 97 82 80 102 89 129 142 155 151 155 198 288 321 334 335 340 338 2 12 10 359 359 355 355 356 357 354 353 345 337 334 335 336 334 336 335 337 338
101 89 88 95 91 96 93 62 53 74 66 62 69 89 47 324 346 6 6 16 16 27 30 25 1 352 343 344 350 350 351 350 345 342 339 337 337 338 337 338 341 342 341
103 104 103 103 108 104 105 102 73 48 51 64 86 86 65 56 50 38 34 35 43 48 42 31 349 336 338 347 346 341 337 335 337 340 338 338 338 337 336 339 344 344 341
72 73 96 120 125 125 119 115 115 105 72 42 50 62 62 58 50 47 54 52 52 45 31 5 341 337 340 345 342 340 336 337 340 342 339 339 339 335 336 339 341 340 338
71 92 98 109 113 117 113 106 100 96 98 79 51 43 48 51 47 48 49 54 60 23 5 357 349 344 344 343 339 337 333 331 335 340 341 338 337 336 336 337 336 337 338
61 78 86 98 102 105 108 109 103 104 104 93 75 52 38 38 52 39 28 32 36 15 1 355 352 347 340 338 338 336 335 335 337 340 337 335 335 334 331 331 333 336 339
63 83 93 92 96 103 110 114 106 103 110 103 59 14 28 67 75 45 19 17 16 7 356 348 342 339 338 339 337 334 331 330 332 332 331 329 329 328 325 325 326 330 333
71 99 110 117 110 109 111 111 108 110 108 95 61 34 32 42 52 34 14 8 1 359 355 346 341 341 337 334 327 322 323 326 329 328 324 322 322 323 323 324 327 332 336
91 118 107 103 112 132 106 104 112 116 115 102 82 51 36 36 32 24 12 2 0 360 2 0 348 346 347 337 327 319 311 313 312 309 310 313 317 318 319 322 324 327 335
98 117 120 117 109 118 117 111 105 105 104 100 78 51 33 25 21 13 3 1 1 359 358 356 351 341 337 337 334 329 323 317 314 306 297 298 307 313 317 320 322 326 334
109 112 112 114 114 112 110 107 98 94 96 85 65 40 24 18 13 5 2 3 360 359 355 352 349 344 338 333 331 331 329 328 328 325 314 307 305 309 311 312 318 326 333
91 105 110 103 101 110 117 115 104 99 101 84 62 47 25 11 2 359 359 359 353 349 349 348 342 336 333 333 329 329 330 330 329 327 325 312 307 310 312 315 320 325 329
Height
1465 1467 1470 1472 1475 1477 1480 1482 1484 1485 1487 1489 1491 1492 1493 1494 1495 1495 1496 1496 1496 1496 1496 1495 1494 1494 1493 1492 1490 1489 1487 1485 1479 1474 1473 1470 1467 1464 1460 1457 1453 1449 1446
1463 1465 1467 1470 1472 1474 1477 1479 1481 1483 1485 1486 1488 1489 1490 1491 1492 1493 1493 1493 1493 1493 1493 1492 1491 1491 1490 1488 1487 1485 1483 1481 1478 1471 1468 1466 1463 1460 1456 1453 1449 1446 1442
1461 1463 1465 1467 1469 1472 1474 1476 1478 1480 1481 1483 1485 1486 1487 1488 1489 1490 1490 1490 1490 1490 1490 1489 1488 1487 1486 1485 1483 1481 1479 1477 1474 1470 1465 1462 1459 1456 1452 1449 1445 1441 1438
1459 1461 1462 1465 1467 1469 1472 1474 1475 1477 1478 1480 1482 1483 1485 1486 1486 1487 1487 1487 1487 1487 1486 1486 1485 1484 1483 1481 1479 1477 1475 1473 1470 1467 1463 1459 1456 1453 1450 1445 1440 1437 1434
1456 1458 1460 1462 1465 1466 1469 1471 1473 1474 1476 1477 1479 1480 1482 1483 1483 1484 1484 1484 1484 1483 1483 1482 1481 1481 1479 1478 1476 1474 1471 1469 1466 1463 1460 1456 1453 1450 1446 1443 1438 1434 1430
1454 1456 1458 1460 1462 1464 1466 1468 1470 1471 1473 1475 1476 1477 1479 1480 1481 1481 1481 1481 1480 1480 1479 1479 1478 1477 1475 1474 1472 1470 1469 1466 1463 1460 1457 1454 1451 1448 1444 1441 1437 1432 1427
1452 1454 1456 1457 1459 1461 1463 1465 1467 1469 1470 1472 1473 1474 1476 1477 1478 1478 1478 1478 1477 1477 1476 1475 1474 1473 1472 1470 1468 1467 1465 1463 1461 1458 1455 1452 1448 1445 1442 1438 1435 1431 1427
1451 1452 1454 1455 1457 1459 1460 1462 1464 1466 1467 1469 1470 1471 1473 1474 1475 1475 1475 1474 1474 1474 1473 1472 1471 1470 1469 1467 1465 1463 1461 1459 1457 1455 1452 1449 1446 1443 1440 1437 1433 1429 1424
1449 1450 1452 1453 1455 1456 1457 1459 1461 1463 1464 1466 1467 1468 1469 1470 1471 1472 1471 1471 1471 1471 1470 1469 1468 1467 1465 1464 1462 1460 1458 1455 1454 1451 1449 1446 1444 1441 1438 1434 1430 1426 1421
1447 1449 1450 1451 1453 1454 1455 1457 1458 1460 1461 1463 1464 1465 1467 1468 1468 1469 1469 1468 1468 1467 1467 1466 1465 1464 1463 1461 1459 1457 1454 1452 1450 1447 1445 1443 1440 1437 1435 1432 1428 1424 1420
1446 1447 1448 1449 1451 1452 1453 1455 1456 1457 1459 1460 1462 1463 1464 1465 1465 1466 1466 1465 1465 1464 1463 1463 1462 1461 1459 1458 1457 1454 1452 1450 1447 1445 1442 1440 1437 1434 1432 1429 1426 1423 1419
1444 1445 1446 1448 1449 1450 1451 1452 1453 1454 1456 1457 1459 1460 1461 1462 1463 1463 1463 1463 1463 1462 1460 1460 1459 1458 1457 1455 1454 1452 1450 1448 1445 1443 1440 1437 1435 1432 1429 1426 1424 1421 1418
1443 1444 1445 1446 1447 1448 1449 1450 1451 1452 1453 1454 1456 1457 1458 1459 1460 1460 1460 1460 1460 1459 1458 1457 1457 1455 1454 1453 1451 1449 1447 1445 1443 1441 1438 1436 1433 1430 1427 1424 1421 1419 1416
1441 1442 1443 1444 1445 1446 1447 1448 1449 1450 1451 1452 1453 1454 1455 1456 1457 1457 1457 1457 1457 1456 1456 1455 1454 1453 1452 1450 1449 1447 1445 1443 1441 1439 1437 1434 1432 1429 1426 1423 1419 1417 1414
1440 1441 1442 1443 1443 1444 1445 1446 1447 1449 1450 1451 1451 1452 1453 1454 1455 1455 1455 1455 1455 1454 1453 1452 1451 1450 1449 1448 1446 1445 1443 1442 1440 1438 1435 1433 1430 1427 1424 1422 1419 1416 1413
1438 1439 1440 1441 1442 1443 1443 1445 1446 1448 1449 1450 1451 1451 1452 1453 1453 1453 1453 1453 1453 1452 1452 1450 1449 1448 1447 1446 1444 1443 1442 1440 1438 1436 1434 1432 1429 1426 1424 1421 1419 1416 1413
1437 1438 1439 1440 1441 1441 1442 1443 1444 1446 1447 1448 1449 1449 1450 1451 1451 1451 1451 1451 1450 1450 1449 1448 1447 1446 1445 1444 1443 1442 1440 1439 1437 1435 1433 1431 1428 1426 1423 1421 1418 1416 1413
1436 1437 1438 1438 1439 1440 1441 1442 1443 1443 1444 1445 1447 1448 1448 1448 1449 1449 1449 1448 1448 1448 1447 1446 1445 1444 1443 1442 1441 1440 1439 1437 1436 1434 1432 1430 1428 1425 1423 1421 1418 1416 1413
1435 1435 1436 1437 1438 1439 1440 1441 1442 1442 1443 1443 1444 1445 1446 1446 1447 1447 1447 1447 1446 1446 1445 1445 1444 1443 1442 1441 1440 1439 1437 1436 1435 1433 1431 1429 1427 1425 1423 1420 1418 1416 1413
1433 1434 1435 1436 1437 1438 1439 1440 1441 1441 1442 1442 1443 1443 1444 1444 1444 1444 1445 1445 1445 1444 1444 1443 1442 1441 1441 1440 1439 1437 1436 1435 1433 1432 1430 1428 1426 1424 1422 1420 1418 1416 1413
1432 1433 1434 1435 1436 1437 1438 1439 1440 1440 1441 1441 1442 1442 1443 1443 1443 1443 1443 1443 1443 1443 1442 1441 1441 1440 1439 1438 1437 1436 1435 1433 1432 1430 1429 1427 1425 1424 1422 1420 1418 1415 1413
1431 1432 1433 1433 1434 1436 1437 1437 1438 1439 1440 1440 1440 1441 1442 1442 1442 1442 1442 1442 1442 1441 1441 1440 1439 1438 1438 1437 1436 1434 1433 1432 1430 1429 1427 1426 1424 1423 1421 1419 1417 1415 1413
1430 1431 1431 1432 1433 1434 1435 1436 1437 1438 1439 1439 1439 1440 1440 1441 1441 1441 1441 1441 1440 1440 1439 1439 1438 1437 1436 1435 1434 1433 1432 1430 1429 1427 1426 1424 1423 1422 1420 1418 1416 1414 1413
1429 1429 1430 1431 1432 1433 1434 1435 1436 1437 1437 1438 1438 1439 1439 1439 1440 1440 1440 1439 1439 1438 1438 1437 1436 1435 1434 1433 1432 1431 1430 1429 1427 1426 1425 1423 1422 1421 1419 1418 1416 1414 1412
1428 1428 1429 1430 1431 1432 1433 1433 1434 1435 1436 1436 1437 1437 1438 1438 1438 1438 1438 1438 1437 1437 1436 1435 1434 1433 1432 1431 1430 1429 1428 1427 1426 1425 1423 1422 1421 1420 1418 1417 1415 1414 1412
1427 1427 1428 1429 1430 1431 1431 1432 1433 1434 1435 1435 1436 1436 1437 1437 1437 1437 1437 1436 1436 1435 1434 1433 1433 1432 1431 1430 1428 1427 1426 1425 1424 1423 1422 1421 1420 1418 1417 1416 1414 1413 1411